RH
46 44 43 41 32 43 47 51 60 46 45 58 61 63 52 52 53 47 47 45 48 47 53 54 68 60 53 50 51 54 56 60 81 70 60 58 56 58 55 66 70 62 64 71
38 44 43 43 37 46 52 46 47 40 36 65 62 57 56 53 52 50 49 49 46 48 51 53 53 64 50 55 55 58 58 64 78 73 68 68 77 63 55 54 66 71 72 64
48 38 43 44 39 44 43 41 71 40 49 53 47 50 53 55 55 54 51 49 46 48 49 51 54 74 57 58 55 62 56 63 68 60 56 60 85 71 63 66 78 57 73 70
80 58 38 40 40 37 41 52 66 58 48 49 46 45 49 53 54 52 52 52 47 50 54 53 54 63 59 62 59 67 63 79 65 60 60 62 62 62 66 82 64 64 37 51
83 84 57 38 40 29 47 46 50 55 51 50 43 50 49 46 50 50 50 53 47 49 47 42 52 52 57 56 68 67 67 70 66 79 54 58 68 60 60 60 61 58 53 52
89 90 84 47 40 30 59 72 64 44 62 49 38 35 46 45 49 53 46 50 53 55 49 45 43 43 46 48 58 65 65 68 68 66 59 54 51 41 48 53 49 54 65 47
94 96 92 78 46 47 40 61 62 41 37 45 39 43 45 47 49 44 53 52 51 51 56 55 54 56 59 58 59 58 68 70 67 64 52 53 33 34 42 46 44 45 46 42
77 88 94 89 61 53 48 47 57 49 33 44 44 47 48 52 57 52 54 54 53 56 54 44 44 49 65 74 72 71 62 60 57 62 61 42 30 44 43 46 31 34 40 42
71 81 87 89 88 56 57 50 48 54 38 34 42 45 48 46 49 50 59 65 67 56 52 47 38 37 38 62 88 78 76 69 57 71 70 55 26 38 46 42 24 20 35 34
80 77 80 83 92 80 60 62 54 49 50 43 45 44 46 50 53 45 62 70 72 60 55 47 54 34 46 44 62 78 88 80 82 69 66 50 36 40 42 35 17 24 39 38
84 87 90 83 88 93 70 65 65 56 52 49 47 47 53 58 53 45 65 66 74 72 60 52 46 54 47 51 48 64 66 71 73 67 69 74 41 44 43 23 27 34 36 38
75 76 84 95 94 98 84 71 66 63 59 54 48 42 42 46 44 50 72 57 68 60 53 61 53 57 71 52 37 65 62 49 51 50 45 34 39 34 32 38 40 34 34 32
39 50 57 70 93 99 99 80 74 71 75 66 66 58 58 55 48 48 54 67 56 65 59 54 56 54 51 54 55 46 55 52 54 52 28 37 34 32 33 32 33 31 32 36
30 27 27 36 56 91 100 97 84 76 76 76 60 55 54 54 55 54 54 59 69 68 60 59 59 61 52 48 45 43 35 52 48 45 35 32 28 27 25 27 31 34 32 35
35 30 27 26 32 81 96 100 98 84 72 80 78 75 72 67 67 64 67 67 67 69 71 72 67 64 62 58 66 63 49 37 36 29 18 20 20 22 22 26 28 28 29 30
40 70 80 72 40 88 98 91 88 97 90 87 86 68 73 71 71 75 79 76 71 65 66 64 62 65 57 63 60 50 40 33 28 28 23 25 29 31 30 33 33 31 32 32
55 86 86 91 60 95 87 80 68 87 90 88 92 77 71 78 81 82 79 84 75 68 65 72 67 67 68 70 56 34 30 36 36 33 36 37 30 32 32 34 35 35 37 37
42 79 74 90 80 92 95 96 90 90 91 84 96 86 64 78 75 77 85 79 78 78 71 76 76 70 73 79 49 36 36 38 40 38 35 37 38 40 39 40 43 46 46 40
37 56 67 93 97 98 100 98 100 98 95 99 97 93 77 73 80 81 80 78 89 76 82 80 78 71 80 55 50 49 46 48 45 47 47 46 46 45 46 49 51 51 50 45
72 75 83 84 100 98 98 100 100 99 99 99 99 83 84 64 74 77 83 84 87 95 73 79 89 76 56 49 47 45 45 47 50 55 52 52 56 53 53 55 54 53 51 50
67 88 92 92 89 91 93 99 100 97 100 100 87 92 86 71 77 71 73 86 84 97 77 90 85 80 60 48 47 49 52 52 51 53 54 54 56 59 60 58 55 56 56 55
92 97 86 80 87 95 99 92 95 97 87 96 96 96 95 88 74 75 84 90 90 95 78 93 86 57 53 49 54 63 62 64 61 58 55 54 55 55 56 57 57 59 58 58
84 85 82 88 86 95 95 90 93 95 95 93 92 92 98 93 81 94 93 95 89 78 92 85 68 63 56 55 64 68 62 64 67 68 64 63 59 56 58 58 56 61 61 61
81 84 90 87 86 90 92 94 94 95 91 84 89 90 92 96 96 86 94 80 84 92 98 80 61 68 80 74 72 70 72 66 64 67 68 68 66 63 59 57 55 59 56 54
88 89 97 87 71 87 93 96 94 86 86 91 78 89 92 90 95 92 95 95 92 82 80 69 91 96 98 92 77 70 70 69 70 70 76 74 70 68 66 62 60 56 59 60
92 97 92 83 96 88 95 96 94 93 87 92 92 82 91 93 92 95 92 87 85 86 94 92 89 96 94 66 54 58 61 67 76 78 72 65 71 74 72 70 68 62 63 61
84 87 84 84 89 84 74 72 76 79 92 79 82 73 76 86 93 94 90 89 78 89 88 70 73 87 65 56 54 54 56 58 58 64 64 65 70 71 75 76 64 65 64 64
Wind_Speed
17 19 22 24 27 19 6 1 1 7 3 2 3 3 4 3 2 1 2 3 3 1 1 1 1 2 1 4 4 4 2 2 3 2 2 4 5 4 7 4 5 4 3 8
18 20 21 23 27 18 4 2 2 5 2 3 3 3 4 2 2 1 2 2 1 2 3 1 1 1 2 4 3 2 4 2 1 2 2 2 5 11 10 3 2 8 4 6
19 20 21 23 24 17 4 1 2 3 4 2 5 4 3 2 2 2 1 3 2 3 2 1 3 2 1 4 2 1 3 2 6 3 2 3 5 11 16 12 5 6 13 12
19 21 20 21 24 14 4 4 2 1 3 4 4 2 3 4 3 1 1 2 4 4 3 3 3 3 3 2 1 3 2 4 5 10 11 12 15 15 15 20 22 11 10 15
17 19 21 20 21 13 6 2 2 1 2 1 1 2 4 5 3 5 3 3 5 5 3 3 6 7 6 4 6 7 4 3 4 6 9 10 17 20 23 24 25 28 26 31
15 17 18 20 19 11 5 3 2 2 1 1 2 1 2 4 3 2 1 3 2 4 5 4 4 2 1 1 5 10 5 3 2 5 4 14 16 17 22 19 19 24 22 28
13 15 16 16 16 14 6 3 1 1 1 2 2 2 3 4 3 1 1 2 3 2 3 4 4 2 1 2 5 3 6 5 2 6 10 4 3 7 8 13 20 20 24 26
11 11 12 13 13 12 6 3 2 1 0 1 2 4 3 3 1 4 2 2 2 1 1 2 2 2 3 2 1 5 4 5 3 3 4 13 2 3 3 6 7 18 24 24
9 8 8 9 10 9 6 5 4 1 1 3 2 3 3 3 3 3 2 2 2 1 0 2 3 3 0 2 2 3 3 5 5 1 4 4 2 0 3 3 1 2 11 14
8 8 6 7 7 7 6 2 2 1 1 1 4 3 3 4 2 1 1 4 3 1 3 3 4 2 0 3 4 5 4 4 11 9 6 9 9 6 2 4 4 8 3 7
6 7 8 6 5 5 4 2 2 2 1 2 6 5 4 2 2 3 4 3 1 2 5 3 2 3 1 3 2 5 8 8 6 7 6 9 8 5 6 2 1 3 4 7
6 7 7 6 5 4 1 1 1 2 3 3 4 8 9 5 3 3 5 2 3 4 3 3 2 4 3 3 3 2 5 5 3 9 6 4 7 11 6 4 7 12 12 13
6 7 7 7 5 5 5 2 2 1 3 3 2 3 3 10 16 8 3 2 2 3 1 2 1 6 3 5 6 6 7 7 5 3 9 20 19 18 17 16 17 18 14 14
8 7 8 8 7 4 9 4 1 2 1 2 2 3 3 1 5 12 14 3 5 4 1 2 3 3 4 2 2 4 2 9 8 13 19 21 19 14 14 13 12 13 13 12
10 11 10 9 7 4 6 9 6 4 1 2 5 8 3 3 5 6 6 8 4 2 2 3 3 2 2 2 1 5 8 11 7 10 13 12 13 6 4 11 15 17 18 19
10 10 11 11 7 2 3 2 4 10 6 1 3 2 0 3 4 4 3 4 1 1 2 3 3 2 3 4 4 10 12 17 20 20 20 13 13 15 20 21 20 18 15 15
8 7 11 11 6 7 2 0 1 8 10 1 4 3 2 2 2 3 2 2 1 2 2 3 3 1 3 3 8 22 11 8 12 14 12 21 20 17 12 14 21 24 22 21
10 4 6 5 9 4 3 3 2 14 3 0 2 4 0 2 1 1 1 2 2 3 2 1 2 1 3 6 20 16 13 10 11 13 14 14 20 18 19 19 17 17 16 16
9 5 4 3 2 2 2 3 5 14 3 2 2 3 1 0 1 1 1 0 2 1 3 2 3 3 7 11 8 8 7 6 14 14 16 14 14 18 16 15 16 16 16 13
5 1 1 2 2 3 4 2 1 1 2 2 3 1 1 2 1 1 1 1 2 2 2 3 3 5 18 16 16 13 10 9 8 10 12 14 17 15 17 17 15 15 15 15
3 4 2 3 5 1 1 1 2 2 3 2 1 2 2 3 3 2 2 2 1 2 1 3 2 4 3 2 5 5 5 5 6 7 11 13 13 15 15 16 15 15 17 12
3 2 3 3 1 0 2 3 2 4 2 1 2 1 2 1 1 2 2 2 3 4 4 2 3 4 5 6 7 8 8 9 8 8 8 12 13 14 12 11 11 13 14 12
2 2 2 0 0 3 4 4 2 1 2 3 3 2 2 1 2 3 3 4 4 3 3 4 4 7 7 9 10 11 14 15 14 12 11 12 13 14 11 15 15 11 9 10
2 2 3 3 3 3 1 1 2 2 1 3 2 2 2 1 4 3 4 3 3 3 4 5 2 5 8 9 9 9 12 14 14 14 17 15 14 17 19 15 16 14 12 10
1 2 3 4 2 1 1 1 2 1 3 2 2 2 2 3 4 4 3 3 4 5 3 1 3 5 4 11 13 14 12 11 12 16 14 17 18 18 20 21 19 18 19 18
1 3 2 3 2 2 2 3 3 3 1 2 2 2 3 4 4 4 6 5 6 2 2 3 4 5 7 11 11 12 16 17 17 18 19 22 20 19 22 28 25 24 20 20
3 4 5 3 2 4 4 4 4 4 2 1 1 3 5 3 4 4 4 3 1 3 4 6 8 9 13 12 16 18 20 20 21 20 22 24 25 25 22 14 26 23 25 24
Wind_Direction
4 3 4 2 1 4 12 67 40 347 17 46 35 65 96 122 121 97 101 98 102 117 137 99 134 154 36 165 168 148 92 105 176 190 84 281 236 236 193 231 194 228 277 269
8 5 5 3 1 3 0 61 332 354 29 85 77 95 87 86 141 153 148 122 106 145 139 98 94 229 34 165 173 165 171 192 180 195 223 199 234 218 223 239 14 224 220 257
12 9 7 4 3 1 10 76 42 22 54 25 105 129 120 111 41 118 73 103 126 136 123 132 159 174 126 173 201 80 175 250 255 278 48 121 211 220 214 209 224 246 230 283
10 8 9 7 2 2 25 14 77 126 30 43 83 98 128 141 167 16 246 152 210 170 150 167 192 158 153 151 207 147 269 266 257 270 268 255 258 251 220 215 224 230 257 239
3 5 6 9 8 7 59 36 146 121 100 138 95 337 175 176 161 175 205 261 188 202 198 209 180 175 203 188 171 182 186 255 295 278 273 268 265 254 243 240 237 248 259 271
356 359 4 7 14 28 67 46 26 295 109 115 187 133 162 191 168 184 298 178 144 223 262 273 351 254 64 174 185 189 188 229 296 269 296 301 277 258 236 236 235 236 245 250
347 348 356 7 12 28 78 86 83 334 118 218 204 176 171 181 181 43 79 163 180 100 112 108 99 66 313 224 223 245 187 198 236 288 319 250 53 265 238 238 243 235 247 257
326 339 351 359 8 17 43 75 102 99 46 294 212 200 185 138 145 167 184 183 8 149 167 231 257 197 205 198 202 225 263 221 264 269 278 293 279 37 137 198 285 229 237 254
324 331 345 349 359 10 20 49 60 92 162 196 124 153 197 199 184 184 163 111 125 117 222 236 239 240 246 198 124 27 215 291 240 211 275 259 14 132 192 193 296 17 227 250
356 346 326 331 351 358 6 9 34 93 213 195 165 195 180 143 143 114 147 159 140 292 178 219 231 248 8 222 196 162 158 215 227 241 268 277 260 198 126 289 22 343 306 279
357 0 358 340 332 352 352 323 313 293 240 252 191 187 155 138 190 190 136 150 192 145 188 209 206 231 197 261 159 186 184 172 191 201 240 264 157 116 203 53 260 328 297 263
11 3 358 355 331 319 319 278 312 270 246 289 224 226 235 226 196 158 181 316 157 180 170 210 174 200 184 225 258 218 232 219 208 213 226 258 195 243 239 258 282 285 294 282
358 353 345 359 350 299 262 219 217 289 309 274 280 225 225 243 235 226 212 206 208 187 20 139 58 249 173 197 223 195 218 190 236 284 252 252 257 253 261 265 267 280 284 277
338 345 335 332 341 320 264 252 233 171 108 297 318 311 287 217 222 226 228 157 125 94 145 190 208 236 198 251 331 237 252 164 213 252 268 274 275 262 269 271 268 269 272 258
334 331 323 315 316 328 264 259 249 221 179 276 289 304 301 326 282 229 207 196 164 176 180 196 226 234 209 199 277 231 197 219 225 257 277 263 288 315 304 293 285 285 285 288
343 349 341 316 285 220 186 276 249 221 193 223 286 329 319 42 60 92 118 180 170 224 207 215 230 196 202 238 243 244 224 228 236 251 275 286 296 287 286 283 281 285 287 278
343 351 351 332 230 179 207 318 149 160 171 232 294 280 115 89 95 88 110 98 135 195 218 235 265 208 214 246 254 262 242 245 249 265 286 290 285 295 310 295 288 285 278 274
334 334 351 29 137 175 253 240 127 158 149 238 264 275 300 355 93 119 14 139 172 187 237 215 223 195 232 256 243 274 302 295 287 267 274 267 295 295 297 297 288 287 281 284
329 305 315 150 108 97 352 282 218 197 209 199 215 236 295 58 80 69 126 233 213 106 234 231 196 200 229 243 290 294 307 289 301 305 297 300 285 300 308 308 301 291 287 288
352 352 96 105 30 343 313 256 187 215 233 228 241 18 270 185 173 146 158 197 235 242 218 151 223 253 262 288 293 291 314 321 311 308 320 327 314 315 313 310 301 290 285 291
36 24 51 333 334 2 212 250 226 185 242 215 249 219 264 192 207 218 215 195 189 256 169 215 240 261 258 30 337 353 349 340 324 295 289 296 291 296 303 307 310 302 291 281
351 323 349 343 18 171 237 213 204 216 258 343 289 276 243 236 231 212 182 227 175 249 142 200 252 258 290 342 346 351 346 346 345 344 322 321 313 309 301 299 312 326 324 315
79 75 30 360 256 243 224 198 233 174 38 350 323 303 277 187 224 222 205 223 223 126 202 231 246 327 336 353 344 340 346 341 332 328 325 328 326 326 315 310 313 320 326 323
61 75 337 191 214 245 271 341 53 99 226 301 258 267 258 215 198 220 235 204 152 209 232 238 18 356 352 350 349 347 334 333 327 321 323 323 333 326 320 311 310 306 302 305
145 112 238 234 247 240 248 181 170 191 232 259 299 264 253 249 250 219 212 204 237 226 236 209 337 304 307 343 329 323 319 320 317 311 311 310 316 316 309 316 311 305 296 292
232 234 227 227 246 249 216 210 235 213 290 325 278 292 283 244 239 228 216 205 216 170 202 246 277 264 284 303 306 309 302 298 298 302 299 304 302 301 299 304 297 293 285 277
216 227 236 242 277 251 254 195 214 146 130 257 267 225 244 304 254 233 195 232 178 202 230 275 278 274 299 300 299 304 300 298 297 296 297 295 291 292 289 287 292 293 291 284